Wind_Speed
41 40 40 39 39 39 38 38 38 38 38 38 38 38 37 36 36 35 34 33 32 31 31 30 30 30 30 30 31 31 31 31 32 31 31 31 31 30 30 30 30 29 29 29 28 28 28 28 28 28 28 28 27 27 26 26 26 26 26 26 26 26 26 26 26 26 26 26 26 26 26 26 26 26 26 26 27 27 27 27 27 27 27 26 26 26
40 40 39 39 39 38 38 38 38 38 38 38 37 37 36 35 35 34 33 32 31 31 31 30 30 30 31 31 31 31 32 32 32 31 31 31 30 30 30 30 30 29 29 28 28 28 28 28 28 28 28 27 27 27 26 26 26 26 26 26 26 27 27 27 26 26 26 26 26 26 26 26 26 26 27 27 27 28 28 28 29 29 29 29 29 28
39 39 39 38 38 38 38 38 38 37 37 37 36 36 35 34 34 33 32 31 31 31 31 31 31 31 31 31 32 32 32 32 32 31 31 31 30 30 30 30 29 29 28 28 28 28 28 28 28 28 28 27 27 27 27 26 26 26 26 27 27 27 27 27 27 26 26 26 26 26 26 26 27 27 27 28 28 28 29 29 30 30 30 31 31 31
38 38 38 38 38 38 37 37 37 37 36 36 35 35 34 34 33 32 32 31 31 31 31 31 31 31 32 32 32 32 32 32 32 32 31 31 30 30 30 29 29 29 28 28 28 28 28 28 28 28 28 27 27 27 27 27 27 27 27 27 27 27 27 27 27 27 26 26 26 26 26 27 27 27 28 28 29 29 30 30 31 31 32 32 32 32
38 38 38 37 37 37 37 37 36 36 36 35 35 34 34 33 32 32 32 31 31 31 31 32 32 32 32 33 33 33 33 32 32 32 31 31 30 30 30 29 29 28 28 28 28 28 28 28 28 28 28 27 27 27 27 27 27 27 27 27 27 27 27 27 27 27 26 26 26 26 27 27 27 28 28 29 30 30 31 31 32 32 32 33 33 33
37 37 37 37 37 36 36 36 36 35 35 34 34 33 33 32 32 32 32 32 32 32 32 32 32 33 33 33 33 33 33 32 32 31 31 31 30 30 30 29 29 28 28 28 28 28 28 28 28 28 28 27 27 27 27 27 27 27 28 28 28 28 28 27 27 27 26 26 26 27 27 27 28 28 29 30 30 31 32 32 32 33 33 33 34 34
37 37 37 36 36 36 36 35 35 35 34 34 33 33 33 32 32 32 32 32 32 32 33 33 33 33 34 34 33 33 33 32 32 31 31 30 30 30 29 29 29 28 28 28 28 28 28 28 28 28 27 27 27 27 27 27 28 28 28 28 28 28 28 27 27 27 26 26 27 27 27 28 28 29 30 31 31 32 32 33 33 33 33 34 34 34
36 36 36 36 36 35 35 35 34 34 34 33 33 33 33 33 33 33 33 33 33 33 33 34 34 34 34 34 34 33 33 32 32 31 31 30 30 30 29 29 29 28 28 28 28 28 28 28 28 27 27 27 27 27 27 28 28 28 28 28 28 28 27 27 27 27 26 27 27 27 28 28 29 30 31 31 32 32 33 33 33 34 34 34 35 35
36 36 35 35 35 35 34 34 34 34 34 33 33 33 33 33 33 33 33 33 33 34 34 34 34 34 34 34 34 33 33 32 31 31 31 30 30 29 29 29 29 28 28 28 28 28 28 28 27 27 27 27 27 27 28 28 28 28 28 28 28 28 27 27 27 27 27 27 27 28 29 29 30 31 31 32 32 33 33 33 34 34 34 35 35 36
35 35 35 35 34 34 34 34 34 34 33 33 33 33 33 33 33 33 33 33 34 34 34 34 34 34 34 34 33 33 32 32 31 31 30 30 30 29 29 29 29 28 28 28 28 28 28 27 27 27 27 27 27 28 28 28 28 28 28 28 28 27 27 27 27 27 27 27 28 29 29 30 31 31 32 32 33 33 33 34 34 34 35 35 36 36
35 35 34 34 34 34 34 34 34 34 33 33 33 33 33 33 33 33 33 34 34 34 34 34 34 34 34 34 33 33 32 32 31 31 30 30 30 29 29 29 29 28 28 28 28 28 27 27 27 27 27 27 27 28 28 28 28 28 28 28 27 27 27 27 27 27 27 28 29 30 30 31 32 32 33 33 33 34 34 34 35 35 35 36 37 37
34 34 34 34 34 34 34 34 34 34 33 33 33 33 33 33 33 33 34 34 34 35 34 34 34 34 34 33 33 32 32 31 31 30 30 30 29 29 29 29 28 28 28 28 28 27 27 27 27 27 27 27 27 28 28 28 28 28 28 27 27 27 27 27 27 28 28 29 30 31 31 32 32 33 33 34 34 34 34 35 35 36 36 37 37 38
34 34 34 34 34 33 33 33 33 33 33 33 33 33 34 34 34 34 34 35 35 35 35 34 34 33 33 32 32 32 31 31 30 30 30 29 29 29 29 29 28 28 28 28 27 27 27 27 27 27 27 27 27 28 28 28 28 28 27 27 27 27 27 27 28 29 29 30 31 32 32 33 33 34 34 34 35 35 35 36 36 37 37 38 38 39
34 34 34 33 33 33 33 33 33 33 34 34 34 34 34 34 34 34 34 35 35 34 34 34 33 32 32 31 31 31 30 30 30 30 30 29 29 29 29 28 28 28 28 28 27 27 27 26 27 27 27 27 27 28 28 28 28 27 27 27 27 28 28 28 29 30 31 31 32 33 33 34 34 34 35 35 35 36 36 37 37 37 38 39 39 40
33 33 33 33 33 33 33 33 34 34 34 34 34 34 34 34 34 34 33 33 33 33 33 32 32 31 31 30 30 30 30 30 30 30 30 29 29 29 29 29 28 28 28 27 27 27 27 27 27 27 27 27 27 28 28 28 28 28 28 28 28 28 29 30 30 31 32 33 33 34 34 35 35 35 35 36 36 37 37 38 38 38 39 39 40 41
33 33 33 33 33 33 33 33 33 33 33 33 33 33 33 33 32 32 32 31 31 31 31 31 30 30 30 30 30 30 30 30 30 30 30 30 29 29 29 29 29 28 28 27 27 27 27 27 27 27 27 27 27 28 28 28 28 28 28 29 29 30 30 31 32 32 33 34 34 35 35 35 35 36 36 37 37 38 38 39 39 39 40 41 41 42
32 32 32 32 32 32 32 32 32 32 32 31 31 31 31 30 30 30 30 29 29 29 29 29 30 30 30 30 30 30 30 30 30 30 30 30 29 29 29 29 29 28 28 27 27 27 27 27 27 27 28 28 28 28 28 28 29 29 29 30 30 31 31 32 33 33 34 34 35 35 35 36 36 36 37 38 38 39 39 40 40 40 41 41 42 43
31 31 31 31 31 31 31 30 30 29 29 29 29 29 28 28 28 29 29 29 29 29 29 29 29 29 30 30 31 31 30 30 30 30 30 30 29 29 29 29 29 29 28 28 28 28 28 28 28 28 28 28 28 29 29 29 29 30 30 31 31 32 32 33 34 34 34 35 35 35 36 36 37 37 38 38 39 39 40 40 41 41 42 42 43 43
30 30 30 30 29 29 28 28 28 27 27 27 27 27 28 28 28 28 29 29 29 29 29 30 30 30 30 31 31 31 31 31 30 30 30 30 29 29 29 29 29 29 28 28 28 29 29 29 29 29 29 29 29 29 29 30 30 30 31 31 32 32 33 33 34 34 35 35 35 35 36 36 37 38 38 39 40 40 41 41 42 42 43 43 44 44
29 28 28 28 27 27 27 26 26 26 27 27 27 27 28 28 28 29 29 29 30 30 30 31 31 31 31 31 32 32 31 31 31 30 30 30 29 29 29 29 29 29 29 29 29 29 29 29 29 29 29 30 30 30 30 31 31 31 32 32 33 33 33 34 34 34 35 35 35 36 36 37 38 39 39 40 40 41 41 42 42 43 43 44 44 44
27 27 26 26 26 26 26 26 26 26 27 27 28 28 28 29 29 30 30 30 31 31 31 31 32 32 31 32 32 32 32 31 31 30 30 30 30 29 29 29 29 29 29 30 30 30 30 30 30 30 30 30 31 31 31 31 32 32 32 33 33 33 34 34 34 34 34 35 35 36 37 38 39 39 40 41 41 42 42 43 43 44 44 44 45 45
26 26 25 25 25 25 26 26 27 27 28 28 29 29 29 30 30 30 31 31 31 31 32 32 32 32 32 32 32 32 31 31 31 30 30 30 30 30 30 30 30 30 30 30 30 31 31 31 31 31 31 31 31 32 32 32 32 33 33 33 33 33 33 34 34 34 34 35 36 37 38 38 39 40 41 41 42 42 43 43 44 44 45 45 45 45
25 25 25 25 25 26 26 27 27 28 28 29 29 29 30 30 30 31 31 31 31 32 32 32 32 32 32 32 32 31 31 31 31 30 30 30 30 30 30 30 30 30 30 31 31 31 32 32 32 32 32 32 32 32 33 33 33 33 33 33 33 33 34 34 34 34 35 35 36 37 38 39 40 41 41 42 42 43 43 44 44 45 45 45 45 45
25 25 25 26 26 27 27 28 28 29 29 29 30 30 30 31 31 31 31 31 32 32 32 32 32 31 31 31 31 31 31 30 30 30 30 30 30 30 30 30 31 31 31 31 32 32 32 32 32 32 33 33 33 33 33 34 34 34 34 34 34 34 34 34 34 35 35 36 37 38 39 40 40 41 42 42 43 43 44 44 44 45 45 45 45 45
26 26 26 27 27 28 28 28 29 29 29 29 30 30 30 31 31 31 31 31 31 31 31 31 31 31 31 31 31 30 30 30 30 30 30 30 30 30 31 31 31 31 32 32 32 33 33 33 33 33 33 34 34 34 34 34 34 34 34 34 34 34 34 34 34 35 36 37 38 39 39 40 41 42 42 43 43 44 44 44 45 45 45 45 45 45
27 27 27 28 28 28 29 29 29 29 29 30 30 30 30 31 31 31 31 31 31 31 31 31 31 30 30 30 30 30 30 30 30 30 30 30 30 31 31 31 32 32 32 32 33 33 33 34 34 34 34 34 35 35 35 35 35 35 34 34 34 34 34 35 35 36 37 37 38 39 40 41 41 42 42 43 43 44 44 44 45 45 45 45 45 45
28 28 28 28 29 29 29 29 29 29 30 30 30 30 31 31 31 31 31 31 31 31 31 30 30 30 30 30 30 30 30 30 30 30 30 31 31 31 31 32 32 32 32 33 33 33 34 34 34 35 35 35 35 35 35 35 35 35 35 34 34 34 35 35 36 36 37 38 39 40 41 41 42 42 43 43 44 44 44 44 44 44 44 44 44 44
28 29 29 29 29 29 29 29 29 30 30 30 30 30 31 31 31 31 31 31 31 31 30 30 30 30 30 30 30 30 30 30 30 30 31 31 31 31 32 32 32 32 33 33 33 34 34 35 35 35 36 36 36 36 36 36 36 35 35 35 35 35 35 36 36 37 38 39 40 41 41 42 43 43 43 44 44 44 44 44 44 44 44 44 44 44
29 29 30 30 30 30 30 30 30 30 30 30 30 31 31 31 31 31 31 31 30 30 30 30 30 30 30 30 30 30 30 30 30 30 31 31 31 31 32 32 32 32 33 33 34 34 35 35 36 36 36 36 36 36 36 36 36 36 36 35 35 36 36 37 37 38 39 40 41 41 42 43 43 44 44 44 44 44 44 44 44 44 44 44 44 44
30 30 30 30 30 30 30 30 30 30 30 31 31 31 31 31 31 31 31 30 30 30 30 30 30 30 30 30 30 30 30 30 30 30 31 31 31 31 32 32 32 33 33 34 34 35 35 36 36 36 36 37 37 37 37 36 36 36 36 36 36 36 37 38 38 39 40 41 41 42 43 43 44 44 44 45 45 44 44 44 43 43 43 43 44 44
30 30 31 31 31 31 31 31 31 31 31 31 31 31 31 31 31 31 30 30 30 30 30 30 30 30 29 30 30 30 30 30 30 30 31 31 31 31 32 32 32 33 33 34 35 36 36 36 36 36 36 37 37 37 37 37 37 37 36 37 37 37 38 38 39 40 41 41 42 43 43 44 44 45 45 45 44 44 44 43 43 43 43 43 43 44
31 31 31 31 31 31 31 31 31 31 31 31 31 31 31 31 31 31 30 30 30 30 30 29 29 29 29 29 29 30 30 30 30 30 30 31 31 31 31 32 32 33 33 34 35 36 36 37 37 36 36 37 37 37 37 37 37 37 37 37 38 38 39 39 40 41 41 42 43 43 44 44 45 45 45 45 44 44 43 43 43 43 43 43 43 44
31 31 31 32 32 32 32 32 32 32 32 32 32 32 32 32 31 31 30 30 30 30 29 29 29 29 29 29 29 29 29 30 30 30 30 30 31 31 32 32 33 33 34 34 35 36 37 37 37 37 37 37 37 37 37 37 37 37 37 38 38 39 39 40 41 41 42 43 43 44 44 45 45 45 45 45 44 44 43 43 43 43 43 43 43 44
32 32 32 32 32 32 32 32 32 32 32 32 32 32 32 32 32 31 31 30 30 30 29 29 29 29 29 29 29 29 29 29 30 30 30 31 31 32 32 33 33 34 34 35 35 36 37 37 37 37 37 37 37 37 37 37 37 38 38 38 39 39 40 41 41 42 43 43 44 44 45 45 46 46 45 45 44 44 43 43 43 43 43 43 44 44
32 32 33 33 33 33 33 33 33 33 33 33 33 32 32 32 32 31 31 31 30 30 30 29 29 29 29 29 29 29 29 30 30 30 31 31 32 32 33 33 33 34 35 35 36 36 37 37 38 38 38 38 37 37 37 37 38 38 38 39 40 40 41 41 42 43 43 44 44 45 45 46 46 45 45 44 44 43 43 43 43 43 43 43 44 44
33 33 33 33 33 34 34 34 33 33 33 33 33 33 33 32 32 32 31 31 31 30 30 30 30 30 29 29 29 29 30 30 31 31 31 32 32 33 33 33 34 34 35 36 36 37 37 38 38 38 38 38 38 38 37 38 38 38 39 40 40 41 41 42 42 43 44 44 45 45 45 45 45 45 44 44 43 43 42 42 43 43 43 44 44 44
33 33 34 34 34 34 34 34 34 34 34 34 33 33 33 33 32 32 32 31 31 31 30 30 30 30 30 30 30 30 31 31 31 32 32 32 33 33 34 34 35 35 36 36 37 37 38 38 38 38 38 38 38 38 38 38 39 39 40 40 41 41 42 42 43 43 44 44 45 45 45 45 45 44 43 43 42 42 42 42 42 43 43 43 44 44
33 34 34 34 35 35 35 35 35 35 34 34 34 33 33 33 33 32 32 32 31 31 31 30 30 31 31 31 31 31 31 32 32 32 32 33 33 34 34 35 35 36 36 37 37 38 38 38 38 38 38 38 38 38 39 39 40 40 41 41 41 42 42 42 43 44 44 45 45 45 45 44 44 43 42 42 41 41 42 42 43 43 43 44 44 44
34 34 35 35 35 36 36 35 35 35 35 35 34 34 34 33 33 33 32 32 32 31 31 31 31 31 31 32 32 32 32 32 32 33 33 33 34 34 35 36 36 37 37 37 38 38 38 38 38 38 38 39 39 39 39 40 40 41 41 42 42 42 42 43 43 44 44 45 45 45 44 44 43 42 42 41 41 42 42 42 43 43 44 44 44 44
35 35 35 36 36 36 36 36 36 36 35 35 35 34 34 34 33 33 32 32 32 32 31 31 31 32 32 32 32 33 33 33 33 33 33 34 35 35 36 37 37 37 38 38 38 38 38 38 38 38 39 39 40 40 40 41 41 42 42 42 42 42 43 43 44 44 45 45 45 44 44 43 42 42 42 42 42 42 43 43 44 44 44 44 44 44
35 36 36 36 36 36 36 36 36 36 36 36 35 35 34 34 33 33 32 32 32 32 32 32 32 32 32 32 33 33 33 33 33 33 34 34 35 36 37 37 37 38 38 38 38 38 38 38 39 39 39 40 40 41 41 41 42 42 42 42 42 42 43 43 44 44 44 44 44 43 43 42 42 42 42 42 43 43 44 44 45 45 45 45 45 44
36 36 36 36 36 37 37 37 37 37 36 36 36 35 35 34 34 33 33 32 32 32 32 32 32 32 33 33 33 33 33 33 34 34 35 35 36 36 37 37 37 38 38 38 38 38 38 39 39 40 40 40 41 41 41 42 42 42 42 42 42 42 43 43 43 43 43 43 42 42 42 42 42 42 43 43 44 44 45 45 45 45 45 45 45 45
36 37 37 37 37 37 37 37 37 37 37 36 36 35 35 35 34 34 33 33 33 32 32 32 32 33 33 33 33 33 34 34 35 35 36 36 37 37 37 37 37 38 38 38 39 39 39 40 40 40 41 41 41 41 41 42 42 42 41 41 41 41 42 42 42 42 41 41 41 41 42 42 43 44 44 45 45 46 46 46 46 46 46 45 45 44
37 37 37 37 37 37 37 37 37 37 36 36 36 36 36 35 35 34 34 34 33 33 33 33 33 33 33 34 34 34 35 35 36 36 36 37 37 37 37 37 38 38 38 39 39 40 41 41 41 41 41 41 41 41 41 41 41 41 40 40 40 40 40 40 41 41 41 41 41 42 43 43 44 45 45 46 46 46 46 46 46 46 46 45 45 44
37 37 37 37 37 37 37 37 37 37 36 36 36 36 36 36 36 35 35 35 34 34 34 34 34 34 34 34 35 35 35 36 36 36 37 37 37 37 37 38 38 39 39 40 41 41 41 42 41 41 41 41 40 40 40 40 40 39 39 39 38 38 39 39 40 40 41 42 42 43 44 44 45 45 46 46 46 46 46 46 46 46 46 45 45 44
38 38 38 37 37 37 37 37 36 36 36 36 36 36 36 36 36 36 35 35 35 35 34 34 34 34 34 35 35 35 36 36 36 37 37 37 37 38 38 38 39 40 41 41 42 42 42 42 41 41 40 40 39 39 39 38 38 37 37 37 37 37 38 39 39 40 41 42 43 44 45 45 45 45 46 46 46 46 46 46 46 46 46 45 45 44
38 38 38 37 37 37 36 36 36 35 35 36 36 36 36 36 36 35 35 35 35 34 34 34 34 34 34 35 35 35 35 36 36 37 37 38 38 39 39 39 40 40 41 42 42 42 41 41 40 39 39 38 38 37 37 36 36 36 36 36 36 37 38 39 40 41 42 43 44 44 45 45 45 45 45 45 46 46 46 46 46 46 46 45 45 44
39 38 38 37 37 36 36 35 35 35 35 35 35 35 35 35 35 35 35 35 34 34 34 34 34 34 34 34 35 35 35 36 36 37 38 39 39 40 40 40 40 40 41 41 41 40 40 39 38 37 37 36 36 35 35 34 34 34 35 35 36 37 38 39 40 41 42 43 43 44 44 45 45 45 45 45 45 45 45 46 46 46 45 45 45 44
39 38 38 37 36 36 35 34 34 34 34 34 34 35 35 35 35 35 35 34 34 33 33 33 33 34 34 34 34 35 35 36 37 38 38 39 39 40 40 40 40 40 40 39 39 38 38 37 36 35 35 34 34 33 33 33 33 34 34 35 36 37 38 39 40 41 42 43 43 44 44 44 44 44 44 44 44 45 45 45 46 46 45 45 45 44
39 39 38 37 36 35 35 34 34 34 34 34 34 35 35 35 35 35 34 34 33 33 33 33 33 33 34 34 35 35 36 37 37 38 38 38 39 39 39 39 39 39 39 38 37 37 36 35 34 33 33 32 32 32 32 33 33 34 35 35 36 37 38 39 40 41 42 43 43 44 44 44 44 44 44 44 44 44 45 45 45 46 45 45 45 44
40 39 38 37 36 36 35 35 35 35 35 35 35 35 35 35 34 34 34 33 33 33 33 33 33 34 34 35 36 37 37 37 38 38 38 38 38 38 38 38 38 38 38 37 36 35 33 33 32 32 31 31 31 31 32 33 33 34 35 36 37 38 39 40 41 42 43 43 44 44 44 44 44 44 44 44 44 45 45 45 45 46 46 45 45 44
Wind_Direction
290 291 291 292 292 292 293 293 293 293 293 293 293 293 293 293 292 292 291 289 288 286 285 284 284 285 285 286 288 289 290 291 292 293 293 294 294 293 293 293 293 292 291 291 290 290 290 290 290 290 290 290 290 290 290 291 291 292 292 293 295 296 297 299 301 303 305 307 309 311 312 313 314 316 317 318 319 319 320 320 320 320 320 319 319 318
291 291 292 292 293 293 293 293 293 292 293 293 293 293 293 292 292 291 290 289 287 286 285 285 285 286 287 288 289 290 291 292 292 293 293 293 293 293 292 292 291 290 290 289 289 289 289 289 289 289 288 288 288 288 289 289 290 291 292 293 294 295 297 299 300 302 304 306 308 309 310 311 312 313 314 315 316 317 317 317 317 318 318 318 317 317
291 291 292 292 293 293 293 293 292 292 292 292 293 293 293 292 292 291 289 288 287 286 286 286 286 287 288 289 290 291 291 292 292 293 292 292 292 291 291 290 290 289 288 288 287 287 288 288 288 287 287 287 287 287 288 288 289 290 291 293 294 295 296 298 300 302 303 305 306 307 308 309 310 311 312 313 314 314 315 315 315 315 315 315 315 315
291 291 292 292 292 292 292 292 292 292 292 293 293 293 293 292 291 290 289 288 287 287 286 287 287 288 289 290 290 291 292 292 292 292 292 291 291 290 290 289 288 287 286 286 286 286 286 286 286 286 285 285 285 286 287 288 289 290 291 292 293 294 296 297 299 301 302 304 305 306 307 308 309 310 310 311 312 312 313 313 313 313 313 313 313 313
291 291 291 291 291 291 291 292 292 292 293 293 293 293 293 292 291 290 289 288 287 287 287 288 288 289 290 290 291 291 291 291 291 291 291 290 290 289 288 288 287 286 285 285 285 285 285 285 285 284 284 285 285 286 287 288 289 290 291 292 293 294 295 297 298 300 301 302 303 305 305 306 307 308 309 310 310 310 311 311 311 311 311 311 311 311
290 291 291 291 291 291 291 292 292 293 293 293 293 293 292 291 291 290 289 289 288 288 288 289 289 290 290 291 291 291 291 291 291 290 290 289 289 288 287 286 285 285 284 284 284 284 284 284 284 284 284 285 285 286 287 288 290 291 291 292 293 294 295 297 298 299 300 301 302 304 305 306 306 307 308 308 309 309 309 309 309 309 309 309 309 309
290 290 290 290 291 291 292 292 293 293 293 293 293 292 292 291 291 290 290 289 289 289 289 289 290 290 290 291 291 291 291 290 290 290 289 288 288 287 286 285 284 283 283 283 283 283 283 283 283 284 284 285 286 287 288 289 290 291 292 293 294 295 296 297 298 299 300 301 302 303 304 305 306 306 307 307 307 307 308 308 307 308 308 308 307 307
289 290 290 290 291 292 292 293 293 293 293 293 292 292 292 291 291 290 290 290 290 290 290 290 290 290 290 290 290 290 290 290 289 288 288 287 286 285 285 284 283 282 282 282 282 282 282 283 283 284 284 285 287 288 289 290 291 292 293 294 295 295 296 297 297 298 299 300 301 302 303 304 305 306 306 306 306 306 306 306 306 306 306 306 306 306
289 290 290 291 291 292 293 293 293 293 293 293 292 292 291 291 291 291 291 290 290 290 290 290 290 290 290 290 290 289 289 288 288 287 286 285 285 284 283 282 282 281 281 281 281 281 282 282 283 284 285 286 288 289 291 292 293 294 294 295 295 295 296 296 297 298 299 300 301 302 303 304 305 305 305 306 306 306 306 306 306 306 306 306 306 306
289 289 290 291 291 292 293 293 293 293 293 293 292 292 292 291 291 291 291 290 290 290 290 290 290 290 290 290 289 289 288 287 286 286 285 284 284 283 282 281 281 280 280 280 281 281 282 282 283 285 286 288 290 291 293 294 294 295 295 295 295 295 296 296 297 298 299 300 301 302 303 304 304 305 305 305 305 305 305 305 305 305 305 305 305 305
289 289 290 291 291 292 292 292 293 293 293 293 293 292 292 292 292 291 291 290 290 290 290 290 290 290 290 290 289 288 288 287 286 285 285 284 283 283 282 281 281 280 280 280 281 281 282 283 285 286 288 290 292 293 294 295 295 295 295 295 295 295 296 296 297 298 299 300 301 302 303 303 304 304 304 304 304 304 304 304 304 305 305 305 305 305
289 289 290 290 291 292 292 292 292 293 293 293 292 292 292 292 291 291 290 290 290 290 290 291 290 290 290 290 289 288 287 286 285 285 285 284 284 283 282 281 281 280 280 280 281 282 283 284 286 288 290 292 293 294 295 296 295 295 295 295 295 295 295 296 297 298 299 300 301 302 303 303 303 304 304 304 304 304 304 304 304 304 305 305 305 305
288 289 290 290 291 291 292 292 292 292 292 292 292 291 291 291 291 291 291 291 291 291 291 291 291 290 290 289 289 288 287 286 286 286 285 285 284 283 282 281 281 280 280 281 281 282 283 285 287 289 291 293 294 295 296 296 295 295 295 294 294 294 295 295 297 298 299 300 301 302 303 303 303 303 304 303 304 304 304 304 304 304 304 305 305 305
288 289 290 290 291 291 292 292 292 292 292 291 291 291 291 291 291 291 291 291 291 291 292 291 291 291 290 289 288 288 287 287 286 286 285 285 284 283 281 281 280 280 280 281 281 282 284 285 287 290 292 293 295 295 296 295 295 295 294 294 294 294 295 295 297 298 299 300 301 302 302 303 303 303 303 303 304 304 304 304 304 304 305 305 305 305
288 289 290 291 291 291 291 292 292 292 292 292 292 292 291 291 291 291 291 291 292 292 292 292 291 291 290 289 288 288 287 287 287 286 285 284 283 282 281 280 280 280 280 280 281 282 283 285 287 290 292 294 295 295 296 295 295 294 294 294 294 294 295 296 297 298 299 300 301 302 302 302 303 303 303 303 303 304 304 304 304 305 305 305 305 305
289 290 290 291 291 291 291 292 292 292 292 292 292 292 292 292 292 292 292 292 292 292 292 292 291 290 290 289 288 288 287 287 286 286 285 284 283 282 281 280 279 279 279 280 280 282 283 285 287 290 292 294 295 296 296 296 295 295 294 294 294 294 295 296 297 298 299 300 300 301 301 302 302 302 303 303 303 304 304 304 304 305 305 305 305 305
289 290 291 291 291 291 292 292 292 292 293 293 293 293 293 293 293 294 294 293 293 293 292 291 290 290 289 289 288 287 287 286 286 285 284 283 282 281 280 279 278 278 278 279 280 281 283 285 287 290 292 294 295 296 296 296 296 295 295 294 295 295 295 296 297 298 298 299 300 300 301 301 302 302 303 303 303 304 304 304 305 305 305 305 305 305
290 290 291 291 291 292 292 292 293 293 293 294 294 294 294 294 294 294 294 294 293 292 292 291 290 289 289 288 288 287 287 286 285 284 283 281 280 279 279 278 278 278 278 278 279 280 282 284 287 290 292 294 295 296 296 296 296 295 295 295 295 295 296 296 297 297 298 298 299 299 300 301 301 302 303 303 304 304 304 304 305 305 305 305 305 305
290 290 291 291 291 292 292 293 293 294 294 294 294 294 294 294 295 294 294 293 293 292 291 290 290 289 288 288 288 288 287 285 284 283 281 280 279 278 277 277 277 277 277 278 279 280 282 284 287 290 292 294 295 296 296 296 296 295 295 295 295 295 296 296 297 297 297 298 299 299 300 301 302 302 303 303 304 304 304 305 305 305 305 305 305 305
290 290 290 291 291 292 292 293 293 294 294 294 294 294 294 295 294 294 294 293 292 292 291 290 290 289 288 288 287 287 286 285 284 282 281 279 278 277 276 276 276 276 277 277 278 280 282 284 287 289 292 294 295 296 296 296 296 296 296 296 296 296 296 296 297 297 298 298 299 300 300 301 302 303 303 304 304 304 304 305 305 305 305 305 305 305
289 290 290 290 291 291 292 292 293 293 294 294 294 294 295 295 294 294 293 293 292 291 291 290 290 289 289 288 287 286 286 284 283 281 280 279 277 276 276 276 276 276 277 277 278 280 282 284 286 289 291 293 295 295 296 296 296 296 296 296 297 297 297 297 297 297 298 299 299 300 301 302 303 303 304 304 304 304 305 305 305 305 305 305 305 305
289 289 290 290 291 291 291 292 293 293 294 294 295 295 295 295 294 294 293 293 292 291 291 290 290 289 288 287 286 286 285 283 282 281 279 278 277 276 276 276 276 276 277 278 279 280 282 284 286 289 291 293 294 295 296 296 297 297 297 297 297 297 297 297 298 298 299 299 300 301 302 303 303 304 304 304 305 305 305 305 305 305 305 305 305 305
288 289 290 290 291 291 292 292 293 294 295 295 295 295 296 295 295 294 294 293 292 292 291 290 290 289 288 287 286 285 284 283 281 280 279 277 277 276 276 276 276 276 277 278 279 280 282 284 287 289 291 293 295 295 296 297 297 297 297 297 297 297 297 298 298 299 299 300 301 302 303 304 304 304 305 305 305 305 305 305 306 306 306 306 305 305
288 289 290 290 291 291 292 293 294 294 295 296 296 296 296 296 295 295 294 294 293 292 291 291 290 289 288 287 286 285 284 282 281 279 278 277 277 276 276 276 276 277 277 278 279 281 283 285 287 289 292 293 295 296 296 297 297 297 297 297 297 297 298 298 299 299 300 301 302 303 304 304 305 305 305 305 305 306 306 306 306 306 306 306 305 305
289 289 290 290 291 292 292 293 294 295 296 296 296 297 296 296 296 295 295 294 293 292 292 291 290 289 288 287 285 284 283 282 280 279 278 277 277 277 277 277 277 277 278 279 280 282 284 286 288 290 292 294 295 296 296 297 297 297 297 297 297 297 298 298 299 300 301 302 303 304 304 305 305 306 306 306 306 306 306 306 306 306 306 306 305 305
289 289 290 290 291 292 292 293 294 295 295 296 296 296 296 296 296 295 295 294 293 292 291 290 289 288 287 286 285 283 282 281 280 279 278 278 278 277 277 277 278 278 279 280 281 283 285 287 289 291 292 294 295 296 296 296 297 297 297 297 297 297 297 298 299 300 301 303 304 305 305 306 306 306 306 307 307 307 307 307 307 307 306 306 305 305
289 289 290 290 291 291 292 293 294 294 295 295 296 296 296 296 295 294 294 293 293 292 290 289 288 288 287 285 284 283 282 281 280 279 278 278 278 278 278 278 279 279 280 281 283 284 286 288 290 291 293 294 295 295 296 296 296 296 296 296 296 297 297 298 299 301 302 303 304 305 306 306 306 307 307 307 307 307 307 307 307 306 306 306 305 305
289 289 289 290 291 291 292 292 293 294 294 295 295 295 295 295 294 294 293 293 292 291 290 289 288 287 286 284 283 283 282 281 280 279 279 279 279 279 279 279 280 281 282 283 284 285 287 288 290 292 293 294 295 295 296 296 296 296 296 296 296 297 297 298 300 301 302 303 304 305 306 306 307 307 307 307 307 307 307 307 307 306 306 306 306 306
289 290 290 290 291 291 292 292 293 293 294 294 295 295 295 295 294 293 293 293 292 290 289 288 287 286 285 284 283 283 282 281 280 280 280 280 280 280 281 281 281 282 283 284 285 286 287 289 291 292 293 294 295 295 296 296 296 296 295 296 296 296 297 298 300 301 302 303 304 305 306 306 307 307 307 307 307 307 307 307 306 306 306 306 306 306
290 290 291 291 291 292 292 293 293 294 294 294 295 295 295 295 294 293 293 292 291 290 289 288 287 286 285 284 283 282 282 281 281 281 281 280 281 281 281 282 282 283 283 284 285 286 287 289 290 292 293 294 295 295 295 295 295 295 295 295 296 296 297 298 300 301 302 303 304 305 306 306 307 307 307 307 307 307 306 306 306 306 306 306 306 306
290 291 291 291 292 292 293 293 293 294 294 294 295 295 295 294 294 293 292 291 290 289 288 287 287 286 285 284 283 282 282 282 282 281 281 281 281 281 282 282 282 283 284 285 286 287 288 290 291 292 293 294 294 295 295 295 295 295 295 295 296 296 297 299 300 301 302 303 304 305 306 306 307 307 307 307 307 306 306 306 306 306 306 306 306 307
291 291 291 292 292 292 293 293 293 294 294 294 294 294 294 294 293 292 292 291 290 289 288 287 286 286 285 284 283 283 282 282 282 282 281 281 281 281 282 282 283 283 285 286 287 288 290 291 292 292 293 293 294 294 295 295 295 295 295 295 296 297 298 299 300 301 302 303 304 305 306 306 307 307 307 307 306 306 306 305 305 305 306 306 307 307
291 291 291 292 292 292 292 293 293 293 293 293 293 293 293 293 292 292 291 290 289 288 288 287 286 285 285 284 283 283 283 282 282 281 281 281 281 282 282 283 283 285 286 287 288 289 290 291 292 293 293 293 294 294 294 294 294 295 295 296 296 297 298 299 300 302 303 304 304 305 306 307 307 307 307 307 306 306 305 305 305 305 306 306 307 307
291 291 291 292 292 292 292 292 292 292 292 292 292 292 292 292 291 291 290 289 289 288 287 287 286 285 284 284 283 283 282 282 282 282 281 281 282 282 283 284 285 286 287 288 289 290 291 291 292 293 293 294 294 294 294 294 294 295 295 296 297 298 299 300 301 302 303 304 305 306 306 307 307 307 307 306 306 305 305 305 305 306 306 307 307 307
291 291 292 292 291 291 291 291 291 290 290 290 290 290 290 290 290 290 289 289 288 287 287 286 286 285 284 284 283 283 282 282 282 282 282 282 283 284 284 285 286 287 288 289 290 290 291 292 293 293 294 294 294 294 294 294 295 295 295 296 297 298 299 300 302 303 303 304 305 306 306 307 307 307 306 306 305 305 305 305 305 306 306 307 307 307
291 291 291 291 290 290 290 289 289 289 289 289 289 289 289 289 289 289 288 288 287 286 286 286 285 285 285 284 284 283 283 283 283 283 283 284 284 285 286 286 287 288 289 290 291 291 292 293 293 294 294 295 295 295 294 294 294 295 295 296 297 298 299 301 302 303 304 304 305 306 306 306 306 306 306 305 305 304 304 305 305 306 306 307 307 307
291 290 290 290 289 289 288 288 288 287 287 287 287 287 287 287 287 287 287 286 286 285 285 285 285 285 285 284 284 284 284 284 284 284 284 285 285 286 286 287 288 289 290 291 292 293 293 294 295 295 295 295 296 296 295 295 295 295 296 296 297 298 299 301 302 303 304 304 305 305 306 306 305 305 304 304 303 303 303 304 304 305 306 306 306 306
290 289 289 289 288 287 287 287 286 286 285 285 285 285 285 285 286 285 285 285 284 284 284 284 284 284 284 285 285 285 285 285 284 285 285 285 286 286 287 288 289 290 291 292 293 294 295 295 296 296 296 296 296 296 296 296 296 296 296 296 297 298 300 301 302 302 303 304 304 305 305 305 304 304 303 303 303 302 303 303 304 304 305 305 305 306
290 289 289 288 287 287 286 286 285 285 284 284 284 284 284 285 285 285 285 284 284 284 284 284 284 284 285 285 285 285 285 285 285 285 285 286 286 287 288 289 290 291 292 293 294 295 295 296 297 297 297 297 297 297 296 296 296 297 297 297 298 299 300 301 302 303 303 304 304 304 304 304 304 303 303 303 302 302 302 303 303 304 304 305 305 305
290 289 289 288 288 287 286 285 285 284 284 283 283 283 284 284 285 285 285 285 285 284 284 284 284 285 285 285 285 285 285 285 285 285 285 286 287 288 289 290 291 292 293 294 295 295 296 296 297 297 297 298 298 297 297 297 297 297 298 298 299 300 301 302 303 303 304 304 304 304 304 304 304 303 303 303 303 303 303 303 303 303 304 304 304 304
290 290 289 289 288 287 286 285 284 284 283 283 283 283 284 285 285 286 286 286 285 285 285 285 285 285 285 285 285 285 285 285 285 285 286 287 288 289 290 291 292 293 294 294 295 296 296 297 297 297 297 298 298 298 297 297 297 298 298 300 300 301 302 303 304 304 304 304 304 304 304 304 304 304 303 303 303 303 303 303 303 303 303 304 304 304
291 290 290 289 288 287 286 285 285 284 283 283 283 284 284 285 285 285 285 285 285 285 285 285 285 285 285 285 285 285 285 285 286 286 287 288 289 290 291 292 292 293 294 295 295 296 296 296 297 297 297 297 297 298 298 298 298 299 300 301 302 302 303 304 304 304 305 305 305 305 305 305 304 304 304 304 303 303 303 303 303 303 303 303 303 303
291 291 290 289 288 288 287 286 285 284 284 284 284 284 285 285 285 285 285 285 284 284 284 284 284 284 284 284 284 285 285 286 287 287 288 289 289 290 291 291 292 293 294 294 295 296 296 296 297 297 297 297 297 298 298 298 299 300 301 302 303 304 304 304 305 305 305 306 306 306 306 305 305 305 304 304 304 303 303 302 302 302 302 302 302 302
291 291 290 290 289 288 287 286 285 285 284 284 284 285 285 285 285 285 284 284 283 283 283 283 283 283 283 284 285 285 286 287 287 288 289 289 290 290 291 291 292 292 293 294 295 296 296 296 297 297 297 297 297 298 298 299 300 301 302 303 304 304 305 305 306 307 307 307 307 307 307 307 306 306 305 304 304 303 302 302 302 301 301 302 302 302
291 291 290 289 288 287 287 286 285 285 284 284 284 284 284 284 284 284 283 283 283 282 282 282 283 283 284 284 285 286 287 287 288 288 289 289 289 290 290 291 291 292 293 294 295 296 296 297 297 297 298 298 298 298 299 300 301 302 303 304 305 305 306 306 307 308 308 308 308 308 308 308 307 307 306 305 304 303 302 302 301 301 301 301 301 301
291 290 290 289 288 287 286 285 285 284 284 283 283 283 283 283 283 282 282 282 282 282 282 282 283 284 285 285 286 287 288 288 289 289 289 289 289 289 290 291 292 293 294 295 295 296 297 297 298 298 298 298 299 299 300 301 302 303 304 305 306 306 307 308 309 309 310 310 310 310 310 309 308 308 307 306 305 304 303 302 302 301 301 301 301 301
291 290 289 288 287 286 285 285 284 284 283 283 283 282 282 282 281 281 281 281 281 282 282 283 284 284 285 286 287 288 289 289 290 290 290 290 290 290 291 291 292 293 294 295 296 297 298 298 298 298 298 299 299 300 301 302 303 304 305 306 307 308 309 310 311 311 312 312 312 312 311 311 310 309 308 307 306 305 304 303 302 302 302 301 301 301
290 290 289 288 287 286 285 284 284 284 283 283 283 283 282 281 281 281 280 280 281 281 282 283 284 285 286 287 288 289 289 290 290 291 291 291 292 292 292 292 293 294 294 295 296 297 298 298 298 298 298 299 299 300 301 302 303 305 306 307 308 310 311 312 313 313 314 314 314 314 313 313 312 311 310 308 307 306 305 304 304 303 302 302 302 302
290 289 289 288 286 285 285 284 284 284 284 284 284 283 283 282 282 281 281 281 281 282 283 284 285 286 287 288 289 289 290 290 290 291 291 292 292 293 293 294 294 295 295 296 297 298 298 298 298 298 298 299 299 300 302 303 304 305 307 308 310 311 312 313 314 315 316 316 316 316 315 314 313 312 311 310 309 308 307 305 305 304 303 303 302 302
290 289 288 287 286 285 284 284 284 284 284 284 284 284 284 283 283 283 283 283 283 283 284 285 287 288 288 289 289 290 290 290 291 291 291 292 292 293 294 294 295 296 297 297 297 297 297 297 297 297 297 298 299 301 302 303 305 306 308 310 311 312 313 314 315 316 317 317 317 317 316 315 314 313 312 311 310 309 308 307 306 305 304 303 303 302
289 288 287 286 284 283 283 283 283 284 284 284 284 284 284 284 284 284 284 284 284 285 286 287 288 289 289 290 290 290 291 291 291 291 292 292 293 293 294 295 296 296 297 297 297 297 296 296 296 296 296 298 299 301 303 304 306 307 309 310 312 313 314 315 316 317 317 318 318 318 317 316 315 314 313 312 311 310 309 308 307 306 305 304 303 303
Height
5722 5722 5722 5721 5720 5719 5719 5718 5718 5717 5716 5715 5715 5714 5714 5713 5713 5712 5712 5712 5711 5710 5710 5710 5709 5709 5709 5709 5708 5708 5707 5707 5707 5706 5705 5704 5704 5703 5702 5702 5701 5701 5700 5700 5699 5699 5698 5698 5697 5697 5696 5696 5695 5695 5694 5694 5693 5692 5692 5691 5691 5690 5689 5689 5688 5687 5687 5686 5685 5684 5683 5682 5682 5681 5681 5680 5679 5679 5678 5678 5677 5677 5677 5677 5676 5676
5720 5719 5719 5718 5717 5717 5716 5716 5715 5714 5713 5713 5712 5712 5711 5710 5710 5710 5709 5709 5708 5708 5707 5707 5707 5707 5706 5706 5706 5705 5705 5704 5704 5703 5702 5702 5701 5701 5700 5699 5699 5698 5698 5697 5697 5697 5696 5696 5695 5695 5694 5694 5693 5693 5692 5692 5691 5691 5690 5689 5689 5688 5687 5687 5686 5686 5685 5684 5683 5682 5682 5681 5680 5680 5679 5678 5678 5677 5677 5676 5676 5675 5675 5674 5674 5674
5717 5716 5716 5715 5715 5714 5713 5713 5712 5712 5711 5710 5709 5709 5708 5708 5707 5707 5707 5707 5706 5706 5705 5705 5704 5704 5704 5703 5703 5703 5702 5702 5701 5701 5700 5699 5699 5698 5697 5697 5697 5696 5696 5695 5695 5694 5694 5694 5693 5693 5692 5692 5691 5691 5690 5690 5689 5689 5688 5687 5687 5686 5686 5685 5684 5683 5683 5682 5681 5681 5680 5679 5679 5678 5677 5677 5676 5676 5675 5674 5674 5673 5672 5672 5672 5671
5714 5714 5713 5712 5712 5711 5711 5710 5709 5709 5708 5707 5707 5706 5706 5705 5705 5705 5704 5704 5704 5703 5703 5702 5702 5702 5701 5701 5701 5700 5700 5699 5698 5698 5697 5697 5696 5696 5695 5695 5694 5694 5693 5693 5693 5692 5692 5692 5691 5691 5690 5690 5689 5689 5688 5688 5687 5687 5686 5686 5685 5684 5684 5683 5682 5682 5681 5680 5679 5679 5678 5677 5677 5676 5676 5675 5674 5674 5673 5672 5672 5671 5671 5670 5670 5669
5712 5711 5710 5710 5709 5709 5708 5707 5707 5706 5706 5705 5704 5704 5703 5703 5702 5702 5702 5702 5701 5701 5701 5700 5700 5699 5699 5698 5698 5698 5697 5697 5696 5695 5695 5694 5694 5693 5693 5692 5692 5692 5691 5691 5691 5690 5690 5689 5689 5688 5688 5688 5687 5687 5686 5686 5685 5685 5684 5683 5683 5682 5682 5681 5680 5679 5679 5678 5677 5677 5676 5676 5675 5674 5674 5673 5672 5672 5671 5671 5670 5669 5669 5668 5667 5667
5709 5708 5708 5707 5707 5706 5706 5705 5704 5704 5703 5702 5702 5701 5701 5701 5700 5700 5699 5699 5699 5698 5698 5698 5697 5697 5696 5696 5696 5695 5694 5694 5693 5693 5692 5692 5691 5691 5690 5690 5690 5689 5689 5689 5688 5688 5687 5687 5687 5687 5686 5686 5685 5685 5684 5684 5683 5682 5682 5681 5681 5680 5679 5679 5678 5677 5677 5676 5676 5675 5674 5674 5673 5672 5672 5671 5671 5670 5669 5669 5668 5667 5667 5666 5665 5665
5706 5706 5705 5704 5704 5703 5703 5702 5702 5701 5701 5700 5699 5699 5698 5698 5698 5697 5697 5697 5697 5696 5696 5695 5695 5694 5694 5693 5693 5692 5692 5691 5691 5690 5689 5689 5688 5688 5688 5687 5687 5687 5687 5686 5686 5686 5685 5685 5685 5684 5684 5683 5683 5682 5682 5682 5681 5680 5680 5679 5678 5677 5677 5676 5676 5675 5675 5674 5673 5673 5672 5672 5671 5670 5670 5669 5668 5668 5667 5667 5666 5665 5665 5664 5663 5662
5704 5703 5703 5702 5702 5701 5700 5700 5699 5699 5698 5697 5697 5697 5696 5696 5696 5695 5695 5694 5694 5693 5693 5692 5692 5692 5691 5691 5690 5690 5689 5689 5688 5687 5687 5687 5686 5686 5686 5685 5685 5685 5684 5684 5684 5683 5683 5683 5682 5682 5682 5681 5681 5680 5680 5679 5678 5678 5677 5677 5676 5675 5675 5674 5673 5673 5672 5672 5671 5671 5670 5670 5669 5668 5668 5667 5666 5666 5665 5664 5664 5663 5662 5662 5661 5660
5701 5701 5700 5700 5699 5699 5698 5697 5697 5696 5696 5695 5695 5694 5694 5693 5693 5693 5692 5692 5691 5691 5691 5690 5689 5689 5689 5688 5688 5687 5687 5686 5686 5685 5685 5684 5684 5684 5683 5683 5683 5682 5682 5682 5682 5681 5681 5681 5680 5680 5679 5679 5678 5678 5677 5677 5676 5675 5675 5674 5673 5673 5672 5672 5671 5671 5670 5670 5669 5669 5668 5667 5667 5666 5666 5665 5664 5663 5662 5662 5661 5661 5660 5659 5658 5658
5699 5698 5697 5697 5697 5696 5696 5695 5694 5694 5693 5693 5692 5692 5692 5691 5691 5690 5690 5689 5689 5688 5688 5687 5687 5686 5686 5686 5685 5685 5684 5684 5683 5683 5682 5682 5682 5681 5681 5681 5680 5680 5680 5679 5679 5679 5678 5678 5678 5677 5677 5677 5676 5676 5675 5674 5673 5673 5672 5672 5671 5671 5670 5670 5669 5669 5668 5667 5667 5667 5666 5665 5665 5664 5663 5662 5662 5661 5660 5659 5659 5658 5657 5657 5656 5655
5696 5696 5695 5694 5694 5693 5693 5693 5692 5691 5691 5690 5690 5689 5689 5689 5688 5688 5687 5687 5686 5686 5685 5685 5685 5684 5683 5682 5682 5682 5682 5681 5681 5681 5680 5680 5679 5679 5679 5678 5678 5678 5677 5677 5677 5677 5676 5676 5676 5675 5675 5674 5674 5673 5672 5672 5671 5671 5670 5669 5669 5668 5668 5667 5667 5667 5666 5665 5665 5664 5663 5663 5662 5662 5661 5660 5659 5658 5658 5657 5656 5656 5655 5654 5653 5652
5693 5693 5693 5692 5692 5691 5691 5690 5689 5689 5688 5688 5687 5687 5687 5686 5686 5686 5685 5684 5684 5683 5683 5682 5682 5682 5681 5680 5679 5679 5679 5678 5678 5678 5677 5677 5677 5677 5676 5676 5675 5675 5675 5675 5674 5674 5674 5673 5673 5673 5672 5672 5671 5671 5670 5669 5669 5668 5668 5667 5667 5666 5666 5665 5665 5664 5664 5663 5662 5662 5661 5661 5660 5659 5658 5657 5657 5656 5655 5654 5654 5653 5652 5651 5650 5649
5691 5691 5690 5690 5689 5688 5688 5687 5687 5687 5686 5686 5685 5684 5684 5684 5683 5683 5682 5682 5681 5681 5680 5680 5679 5679 5678 5677 5677 5676 5676 5676 5675 5675 5675 5674 5674 5674 5673 5673 5673 5672 5672 5672 5672 5672 5672 5671 5671 5670 5670 5670 5669 5668 5668 5667 5667 5666 5666 5665 5664 5664 5663 5663 5662 5662 5661 5661 5660 5659 5659 5658 5657 5656 5656 5655 5654 5653 5652 5652 5651 5650 5649 5648 5647 5646
5688 5688 5687 5687 5686 5686 5685 5685 5684 5684 5683 5683 5682 5682 5682 5681 5681 5680 5680 5679 5678 5678 5677 5677 5677 5676 5676 5675 5675 5674 5673 5673 5673 5672 5672 5672 5672 5672 5671 5671 5670 5670 5670 5669 5669 5669 5669 5669 5668 5668 5668 5667 5667 5666 5666 5665 5664 5664 5663 5663 5662 5662 5661 5661 5660 5659 5659 5658 5657 5657 5656 5655 5654 5653 5653 5652 5651 5650 5649 5649 5648 5647 5646 5645 5644 5643
5686 5685 5684 5684 5683 5683 5682 5682 5682 5681 5681 5680 5680 5679 5679 5678 5678 5678 5677 5677 5676 5675 5675 5674 5674 5673 5673 5673 5672 5672 5671 5671 5670 5670 5670 5670 5669 5669 5669 5668 5668 5668 5667 5667 5667 5667 5667 5667 5666 5666 5666 5665 5665 5664 5663 5663 5662 5662 5661 5661 5660 5659 5659 5658 5657 5657 5656 5655 5655 5654 5653 5652 5652 5651 5650 5649 5648 5647 5646 5646 5645 5644 5643 5642 5641 5640
5683 5682 5682 5681 5681 5680 5680 5680 5679 5678 5678 5678 5677 5677 5676 5676 5675 5675 5675 5674 5673 5673 5672 5672 5671 5671 5671 5670 5670 5669 5669 5668 5668 5668 5667 5667 5667 5667 5667 5666 5666 5665 5665 5665 5665 5664 5664 5664 5664 5664 5663 5663 5662 5662 5661 5660 5660 5659 5659 5658 5657 5657 5656 5656 5655 5654 5653 5653 5652 5651 5650 5649 5649 5648 5647 5646 5645 5644 5643 5642 5641 5640 5639 5638 5637 5636
5680 5680 5679 5678 5678 5677 5677 5677 5677 5676 5676 5675 5675 5674 5674 5673 5672 5672 5672 5672 5671 5670 5670 5669 5669 5668 5668 5668 5667 5667 5667 5666 5666 5665 5665 5665 5664 5664 5664 5663 5663 5663 5663 5663 5662 5662 5662 5662 5662 5661 5661 5660 5660 5659 5659 5658 5657 5657 5656 5656 5655 5654 5654 5653 5652 5652 5651 5650 5649 5648 5647 5647 5646 5645 5644 5643 5642 5641 5640 5639 5638 5637 5636 5635 5633 5632
5678 5677 5677 5676 5675 5675 5675 5675 5674 5674 5673 5673 5672 5672 5671 5671 5670 5670 5669 5669 5668 5668 5667 5667 5667 5666 5666 5665 5664 5665 5665 5664 5663 5663 5663 5663 5662 5662 5662 5661 5661 5661 5661 5660 5660 5660 5660 5659 5659 5659 5658 5658 5657 5657 5656 5656 5655 5654 5653 5653 5652 5652 5651 5650 5650 5649 5648 5647 5646 5646 5645 5644 5643 5642 5641 5640 5639 5637 5637 5635 5634 5633 5632 5631 5630 5629
5675 5675 5674 5673 5673 5673 5672 5672 5672 5671 5671 5670 5670 5669 5669 5668 5668 5667 5667 5667 5666 5666 5665 5665 5664 5664 5663 5663 5662 5662 5662 5661 5661 5661 5661 5660 5660 5660 5659 5659 5658 5658 5658 5658 5658 5657 5657 5657 5657 5657 5656 5656 5655 5654 5654 5653 5652 5652 5651 5650 5650 5649 5648 5647 5647 5646 5645 5644 5643 5642 5642 5641 5640 5638 5637 5636 5635 5634 5633 5632 5631 5629 5628 5627 5626 5625
5672 5672 5672 5672 5671 5671 5670 5670 5669 5669 5668 5668 5667 5667 5667 5666 5666 5665 5665 5664 5664 5663 5663 5662 5662 5662 5661 5661 5660 5659 5659 5659 5658 5658 5658 5658 5658 5657 5657 5657 5656 5656 5656 5656 5655 5655 5655 5654 5654 5654 5654 5653 5652 5652 5651 5651 5650 5649 5648 5647 5647 5646 5645 5645 5644 5643 5642 5641 5640 5639 5638 5637 5636 5635 5634 5633 5632 5631 5629 5628 5627 5626 5624 5623 5622 5621
5670 5670 5670 5669 5669 5668 5668 5667 5667 5667 5666 5665 5665 5665 5664 5664 5663 5663 5662 5662 5661 5661 5660 5660 5659 5659 5659 5658 5657 5657 5656 5656 5656 5656 5656 5656 5655 5655 5655 5654 5654 5654 5653 5653 5653 5652 5652 5652 5652 5652 5651 5651 5650 5649 5649 5648 5647 5646 5646 5645 5644 5643 5642 5642 5641 5640 5639 5638 5637 5636 5635 5634 5633 5632 5631 5629 5628 5627 5626 5624 5623 5622 5621 5619 5618 5617
5668 5668 5667 5667 5667 5666 5666 5665 5665 5664 5663 5663 5662 5662 5662 5662 5661 5660 5660 5659 5659 5658 5658 5657 5657 5656 5656 5655 5654 5654 5654 5653 5653 5653 5653 5652 5652 5652 5652 5652 5651 5651 5651 5651 5650 5650 5650 5649 5649 5649 5649 5648 5647 5647 5646 5645 5644 5643 5643 5642 5641 5640 5639 5638 5638 5637 5636 5635 5634 5633 5632 5631 5630 5628 5627 5626 5625 5623 5622 5621 5619 5618 5617 5615 5614 5612
5666 5665 5665 5665 5664 5664 5663 5663 5662 5662 5661 5661 5660 5660 5659 5659 5658 5658 5657 5657 5656 5656 5655 5654 5654 5653 5653 5652 5652 5651 5651 5651 5650 5650 5650 5650 5650 5650 5650 5649 5649 5649 5649 5648 5648 5647 5647 5647 5647 5646 5646 5646 5645 5644 5643 5642 5642 5641 5640 5639 5638 5637 5636 5636 5635 5634 5633 5632 5631 5630 5629 5627 5626 5625 5623 5622 5621 5620 5618 5617 5616 5614 5612 5611 5610 5608
5663 5663 5662 5662 5662 5661 5661 5660 5660 5659 5659 5658 5657 5657 5657 5656 5655 5655 5654 5654 5653 5652 5652 5652 5651 5651 5650 5650 5649 5649 5648 5648 5648 5647 5647 5647 5647 5647 5647 5647 5647 5646 5646 5646 5645 5645 5644 5644 5644 5644 5643 5642 5642 5641 5640 5639 5639 5638 5637 5636 5635 5634 5633 5632 5632 5631 5630 5628 5627 5626 5625 5624 5623 5621 5620 5619 5617 5616 5615 5613 5612 5610 5609 5607 5606 5604
5661 5660 5660 5660 5659 5659 5658 5658 5657 5657 5657 5656 5655 5655 5654 5653 5653 5652 5652 5651 5650 5650 5649 5649 5649 5648 5648 5647 5647 5647 5646 5646 5645 5645 5645 5645 5645 5645 5645 5644 5644 5644 5643 5643 5643 5642 5642 5641 5641 5641 5640 5640 5639 5638 5637 5637 5636 5635 5634 5633 5632 5631 5630 5629 5628 5627 5626 5625 5624 5623 5622 5621 5619 5618 5617 5615 5614 5612 5611 5609 5608 5606 5605 5603 5602 5600
5658 5658 5658 5657 5657 5657 5656 5656 5655 5655 5654 5653 5653 5652 5652 5651 5650 5650 5649 5648 5648 5647 5647 5647 5646 5646 5645 5645 5645 5644 5643 5643 5643 5642 5642 5642 5642 5642 5642 5642 5641 5641 5641 5640 5640 5639 5639 5638 5638 5637 5637 5637 5636 5635 5634 5633 5632 5632 5631 5630 5629 5628 5627 5626 5625 5624 5623 5622 5621 5620 5618 5617 5616 5614 5613 5612 5610 5608 5607 5605 5604 5602 5601 5599 5597 5596
5656 5656 5656 5655 5655 5654 5654 5653 5653 5652 5652 5651 5650 5650 5649 5648 5648 5647 5647 5647 5646 5645 5644 5644 5643 5643 5642 5642 5642 5642 5641 5641 5640 5640 5640 5640 5639 5639 5639 5639 5639 5638 5638 5638 5637 5637 5636 5636 5635 5635 5634 5633 5633 5632 5631 5630 5629 5628 5628 5627 5626 5625 5624 5623 5622 5621 5620 5619 5617 5616 5615 5613 5612 5611 5609 5608 5606 5605 5603 5602 5600 5598 5597 5595 5594 5592
5654 5653 5653 5653 5652 5652 5652 5651 5650 5650 5649 5648 5648 5647 5647 5646 5645 5645 5644 5644 5643 5642 5642 5641 5641 5640 5640 5640 5639 5639 5638 5638 5638 5637 5637 5637 5637 5637 5637 5636 5636 5636 5635 5635 5634 5634 5633 5633 5632 5632 5631 5630 5629 5628 5628 5627 5626 5625 5624 5623 5623 5622 5621 5620 5619 5618 5617 5615 5614 5613 5611 5610 5608 5607 5606 5604 5602 5601 5599 5598 5596 5595 5593 5591 5590 5588
5651 5651 5651 5650 5650 5649 5649 5648 5648 5647 5647 5646 5645 5645 5644 5643 5643 5642 5642 5641 5641 5640 5639 5639 5638 5638 5637 5637 5637 5637 5636 5636 5635 5635 5634 5634 5634 5634 5634 5633 5633 5633 5632 5632 5632 5631 5631 5630 5629 5628 5627 5627 5626 5625 5624 5623 5623 5622 5621 5620 5619 5618 5617 5617 5615 5614 5613 5612 5611 5609 5608 5607 5605 5603 5602 5600 5599 5597 5596 5594 5592 5591 5589 5587 5586 5584
5648 5648 5648 5647 5647 5647 5646 5646 5645 5645 5644 5643 5643 5642 5641 5641 5640 5640 5639 5638 5638 5637 5637 5636 5636 5636 5635 5635 5634 5634 5633 5633 5632 5632 5632 5632 5631 5631 5631 5631 5630 5630 5630 5629 5628 5628 5627 5627 5627 5626 5625 5624 5623 5622 5621 5620 5619 5618 5617 5617 5616 5615 5614 5613 5612 5611 5610 5608 5607 5606 5604 5603 5601 5600 5598 5597 5595 5594 5592 5591 5589 5587 5586 5584 5582 5581
5646 5645 5645 5644 5644 5644 5643 5643 5642 5642 5641 5641 5640 5639 5639 5638 5637 5637 5636 5636 5636 5635 5635 5634 5633 5633 5632 5632 5632 5631 5631 5631 5630 5630 5629 5629 5629 5629 5628 5628 5627 5627 5627 5626 5625 5624 5624 5624 5623 5623 5622 5621 5620 5618 5617 5617 5616 5615 5614 5613 5612 5612 5611 5609 5608 5607 5606 5605 5603 5602 5601 5599 5597 5596 5595 5593 5591 5590 5588 5587 5585 5583 5582 5580 5578 5577
5643 5642 5642 5642 5641 5641 5640 5640 5639 5639 5638 5637 5637 5637 5636 5635 5635 5634 5634 5633 5633 5632 5632 5632 5631 5631 5630 5630 5629 5628 5628 5628 5627 5627 5627 5627 5626 5626 5626 5625 5625 5624 5624 5623 5622 5622 5621 5620 5620 5619 5619 5617 5617 5615 5614 5613 5612 5612 5611 5610 5609 5608 5607 5606 5605 5603 5602 5601 5600 5598 5597 5595 5594 5592 5591 5589 5587 5586 5584 5583 5581 5580 5578 5576 5575 5573
5640 5640 5639 5639 5638 5638 5637 5637 5637 5636 5635 5635 5634 5634 5633 5633 5632 5632 5631 5631 5630 5630 5629 5629 5629 5628 5628 5627 5627 5626 5626 5625 5625 5624 5624 5624 5623 5623 5623 5622 5622 5621 5621 5620 5620 5619 5618 5617 5616 5616 5615 5614 5613 5612 5611 5610 5609 5608 5607 5606 5605 5604 5603 5602 5601 5600 5598 5597 5596 5594 5593 5592 5590 5588 5587 5585 5583 5582 5580 5579 5577 5576 5574 5572 5571 5569
5637 5637 5636 5636 5636 5635 5635 5634 5634 5633 5632 5632 5632 5631 5630 5630 5629 5629 5628 5628 5627 5627 5627 5626 5626 5626 5625 5625 5624 5624 5623 5622 5622 5622 5621 5621 5620 5620 5620 5619 5619 5618 5618 5617 5617 5616 5615 5614 5613 5612 5611 5611 5610 5609 5608 5607 5606 5605 5604 5603 5602 5600 5599 5598 5597 5596 5594 5593 5592 5590 5589 5587 5586 5584 5582 5581 5579 5578 5576 5575 5573 5572 5570 5568 5567 5565
5634 5634 5633 5633 5632 5632 5632 5631 5631 5630 5630 5629 5629 5628 5627 5627 5627 5626 5626 5625 5625 5624 5624 5623 5623 5622 5622 5622 5622 5621 5621 5620 5619 5619 5618 5618 5617 5617 5617 5617 5616 5615 5615 5614 5613 5612 5611 5611 5610 5609 5608 5607 5607 5606 5605 5604 5602 5601 5600 5599 5598 5597 5596 5595 5593 5592 5591 5589 5588 5587 5585 5583 5582 5580 5579 5577 5575 5574 5572 5571 5569 5568 5566 5565 5563 5561
5632 5631 5631 5630 5630 5629 5629 5629 5628 5628 5627 5627 5626 5626 5625 5624 5624 5623 5623 5622 5622 5621 5621 5620 5620 5619 5619 5619 5618 5618 5618 5617 5617 5616 5615 5615 5614 5614 5614 5613 5613 5612 5611 5610 5610 5609 5608 5607 5606 5606 5605 5603 5603 5602 5602 5601 5599 5598 5597 5596 5595 5594 5592 5591 5590 5588 5587 5586 5584 5583 5582 5580 5578 5577 5575 5573 5572 5570 5569 5567 5566 5564 5562 5561 5559 5557
5629 5629 5628 5628 5627 5627 5627 5626 5626 5625 5624 5624 5623 5623 5622 5622 5621 5620 5620 5619 5619 5618 5618 5617 5617 5617 5616 5616 5615 5615 5615 5614 5613 5613 5612 5612 5611 5611 5610 5610 5609 5609 5608 5607 5607 5606 5605 5604 5603 5602 5601 5600 5599 5598 5598 5597 5596 5595 5593 5592 5592 5590 5589 5588 5587 5585 5584 5582 5581 5579 5578 5577 5575 5573 5572 5570 5569 5567 5566 5564 5562 5561 5559 5557 5556 5554
5627 5626 5626 5625 5624 5624 5623 5623 5623 5622 5622 5621 5621 5620 5619 5619 5618 5618 5617 5617 5616 5616 5615 5615 5614 5614 5613 5613 5612 5612 5612 5611 5611 5610 5609 5609 5608 5607 5607 5606 5606 5605 5605 5604 5603 5602 5602 5600 5599 5598 5597 5597 5596 5595 5594 5593 5592 5591 5590 5589 5588 5587 5586 5585 5583 5582 5581 5579 5577 5576 5575 5573 5572 5570 5569 5567 5566 5564 5562 5561 5559 5557 5556 5554 5552 5551
5624 5623 5623 5622 5622 5621 5621 5620 5620 5619 5618 5618 5617 5617 5617 5616 5615 5615 5614 5614 5613 5612 5612 5612 5611 5611 5610 5610 5609 5609 5609 5608 5607 5607 5606 5605 5605 5604 5603 5603 5602 5602 5601 5601 5600 5599 5598 5597 5596 5595 5594 5593 5592 5591 5591 5589 5588 5587 5586 5585 5584 5583 5582 5581 5580 5578 5577 5576 5574 5572 5571 5570 5568 5567 5565 5564 5562 5560 5559 5557 5556 5554 5552 5551 5549 5547
5621 5620 5620 5619 5619 5618 5617 5617 5617 5616 5615 5615 5614 5614 5613 5613 5612 5612 5611 5611 5610 5610 5609 5608 5608 5607 5607 5607 5606 5606 5606 5605 5604 5604 5603 5602 5602 5601 5600 5600 5599 5598 5598 5597 5596 5596 5595 5594 5593 5592 5591 5589 5588 5587 5587 5586 5585 5583 5582 5581 5580 5579 5578 5577 5576 5574 5573 5572 5570 5569 5567 5566 5565 5563 5562 5560 5558 5557 5555 5553 5552 5550 5549 5547 5545 5544
5618 5617 5617 5616 5616 5615 5614 5614 5613 5613 5612 5612 5611 5611 5610 5610 5609 5608 5608 5607 5607 5607 5606 5605 5605 5604 5604 5604 5603 5603 5602 5602 5601 5601 5600 5599 5599 5598 5597 5596 5596 5595 5594 5593 5593 5592 5591 5591 5589 5588 5587 5586 5585 5584 5582 5582 5581 5580 5579 5578 5577 5575 5574 5573 5572 5571 5569 5568 5567 5565 5564 5562 5561 5559 5558 5556 5554 5553 5551 5549 5547 5546 5544 5543 5542 5540
5615 5614 5614 5613 5612 5612 5611 5611 5610 5609 5609 5608 5608 5607 5607 5607 5606 5605 5605 5604 5604 5603 5603 5602 5602 5601 5601 5601 5600 5600 5599 5599 5598 5597 5597 5596 5596 5595 5594 5593 5592 5592 5591 5590 5589 5588 5588 5587 5586 5585 5584 5583 5582 5580 5579 5578 5577 5576 5576 5574 5573 5572 5570 5569 5568 5567 5566 5564 5563 5562 5560 5559 5557 5556 5554 5552 5550 5549 5547 5545 5544 5542 5540 5539 5537 5536
5612 5611 5610 5610 5609 5608 5608 5607 5607 5606 5606 5605 5605 5604 5604 5603 5603 5602 5602 5602 5601 5601 5600 5599 5599 5598 5598 5597 5597 5597 5596 5595 5595 5594 5593 5593 5592 5592 5591 5590 5589 5588 5587 5587 5586 5585 5584 5583 5582 5581 5580 5579 5578 5577 5575 5574 5573 5572 5572 5571 5570 5568 5567 5565 5564 5563 5562 5561 5559 5558 5557 5555 5553 5552 5550 5548 5547 5545 5543 5541 5540 5538 5537 5535 5533 5532
5608 5607 5607 5606 5606 5605 5604 5604 5603 5603 5602 5602 5602 5601 5601 5600 5599 5599 5598 5598 5598 5597 5597 5596 5596 5595 5595 5595 5594 5594 5593 5592 5592 5591 5590 5590 5589 5588 5587 5587 5586 5585 5584 5583 5582 5581 5580 5579 5579 5577 5577 5575 5574 5573 5572 5571 5570 5569 5568 5567 5566 5565 5563 5562 5560 5559 5558 5557 5556 5554 5553 5552 5550 5548 5546 5544 5542 5541 5539 5537 5535 5534 5532 5531 5530 5528
5605 5604 5604 5603 5602 5602 5601 5601 5600 5600 5599 5599 5598 5598 5597 5597 5596 5596 5595 5595 5594 5594 5593 5593 5593 5592 5592 5591 5591 5591 5590 5589 5588 5587 5587 5586 5586 5585 5584 5583 5582 5581 5580 5579 5578 5577 5577 5576 5575 5574 5573 5572 5571 5570 5568 5567 5567 5566 5565 5564 5562 5561 5560 5559 5557 5556 5555 5553 5552 5551 5549 5548 5546 5545 5543 5541 5539 5537 5535 5533 5532 5530 5528 5527 5526 5524
5602 5601 5600 5600 5599 5599 5598 5598 5597 5597 5596 5596 5595 5595 5594 5593 5593 5592 5592 5592 5591 5591 5590 5590 5589 5589 5588 5588 5587 5587 5587 5586 5585 5584 5583 5583 5582 5582 5581 5580 5579 5578 5577 5576 5575 5574 5573 5572 5571 5570 5569 5568 5567 5566 5565 5564 5563 5562 5561 5560 5559 5558 5557 5555 5554 5553 5552 5550 5548 5547 5546 5544 5542 5541 5539 5537 5535 5533 5531 5529 5527 5526 5524 5523 5522 5520
5598 5598 5597 5597 5596 5596 5595 5595 5594 5593 5593 5592 5592 5592 5591 5590 5590 5589 5588 5588 5588 5587 5587 5587 5586 5586 5585 5585 5584 5584 5583 5582 5582 5581 5580 5579 5578 5578 5577 5577 5576 5575 5574 5572 5571 5570 5569 5568 5567 5566 5565 5564 5563 5562 5562 5561 5560 5559 5558 5557 5556 5555 5553 5552 5551 5549 5548 5547 5545 5543 5542 5540 5539 5537 5536 5533 5532 5529 5527 5525 5523 5522 5520 5519 5517 5516
5595 5595 5594 5593 5593 5592 5592 5591 5591 5590 5590 5589 5589 5588 5587 5587 5586 5586 5585 5585 5584 5584 5584 5584 5583 5583 5582 5582 5581 5581 5580 5579 5578 5577 5576 5575 5574 5574 5573 5573 5572 5571 5570 5569 5568 5567 5566 5564 5563 5562 5562 5561 5560 5559 5558 5557 5557 5556 5555 5553 5552 5551 5550 5549 5547 5546 5544 5543 5541 5540 5538 5537 5535 5533 5532 5530 5528 5526 5523 5521 5519 5518 5517 5515 5514 5512
5592 5591 5591 5590 5590 5589 5589 5588 5588 5587 5587 5586 5585 5585 5584 5583 5583 5582 5582 5582 5581 5581 5581 5581 5580 5579 5579 5578 5578 5577 5577 5576 5575 5574 5573 5572 5571 5570 5569 5568 5568 5567 5566 5565 5564 5563 5562 5561 5560 5559 5558 5557 5557 5556 5555 5554 5553 5552 5551 5550 5549 5548 5547 5545 5544 5542 5541 5539 5538 5536 5534 5533 5531 5530 5528 5527 5525 5522 5520 5518 5516 5514 5512 5511 5510 5508
5588 5587 5587 5587 5586 5586 5586 5585 5585 5584 5583 5583 5582 5582 5581 5580 5579 5579 5579 5578 5578 5578 5578 5577 5577 5576 5576 5575 5574 5574 5573 5572 5572 5571 5570 5569 5568 5567 5565 5564 5564 5563 5562 5561 5561 5560 5559 5558 5557 5556 5555 5554 5553 5553 5552 5551 5550 5549 5548 5547 5546 5544 5543 5542 5540 5539 5537 5536 5534 5532 5531 5529 5527 5526 5524 5523 5521 5519 5517 5515 5512 5510 5508 5507 5506 5505
5585 5584 5584 5583 5583 5582 5582 5582 5581 5581 5580 5580 5579 5578 5578 5577 5577 5576 5576 5575 5575 5575 5575 5574 5574 5573 5572 5572 5571 5570 5570 5569 5568 5567 5566 5565 5564 5563 5562 5561 5560 5559 5558 5557 5557 5556 5556 5554 5553 5552 5552 5551 5551 5550 5548 5547 5547 5546 5545 5543 5542 5541 5540 5538 5537 5535 5534 5532 5530 5529 5527 5525 5524 5522 5521 5519 5517 5516 5513 5511 5509 5507 5505 5503 5502 5501